CMP250 SVVA-MPTO

Flight info

Callsign CMP250
Flight time N/A
Altitude 38000
Route NOSCA DCT KOLEG DCT KONSO DCT ESEDA MEVI1B
Aircraft B38M/M-SDE3FGHIRWY/S

Departure

Time N/A
Airport Arturo Michelena International Airport (SVVA)

Arrival

Time 2026-05-07 00:06
Airport Tocumen International Airport (MPTO)
Time Latitude Longitude Altitude Speed Heading
2026-05-06 23:23 9.36236 -75.56467 39859 ft 440 kts 261°
2026-05-06 23:24 9.35695 -75.59511 39860 ft 440 kts 261°
2026-05-06 23:24 9.34604 -75.65643 39861 ft 439 kts 261°
2026-05-06 23:25 9.33526 -75.71691 39859 ft 440 kts 260°
2026-05-06 23:25 9.32437 -75.77793 39856 ft 440 kts 260°
2026-05-06 23:26 9.31350 -75.83888 39864 ft 440 kts 260°
2026-05-06 23:26 9.30259 -75.89990 39862 ft 441 kts 260°
2026-05-06 23:27 9.29343 -75.95108 39860 ft 441 kts 260°
2026-05-06 23:27 9.28257 -76.01179 39860 ft 441 kts 260°
2026-05-06 23:28 9.27161 -76.07289 39858 ft 441 kts 260°
2026-05-06 23:28 9.26063 -76.13411 39861 ft 441 kts 260°
2026-05-06 23:29 9.24967 -76.19515 39859 ft 441 kts 260°
2026-05-06 23:29 9.23868 -76.25629 39858 ft 441 kts 260°
2026-05-06 23:30 9.22776 -76.31699 39860 ft 442 kts 260°
2026-05-06 23:30 9.21673 -76.37821 39860 ft 442 kts 260°
2026-05-06 23:31 9.20570 -76.43936 39859 ft 442 kts 260°
2026-05-06 23:31 9.19465 -76.50057 39859 ft 442 kts 260°
2026-05-06 23:32 9.18359 -76.56182 39859 ft 442 kts 260°
2026-05-06 23:32 9.17253 -76.62298 39857 ft 442 kts 260°
2026-05-06 23:33 9.16153 -76.68376 39859 ft 442 kts 260°
2026-05-06 23:33 9.15044 -76.74493 39860 ft 442 kts 260°
2026-05-06 23:34 9.13935 -76.80608 39859 ft 442 kts 260°
2026-05-06 23:34 9.12821 -76.86743 39860 ft 443 kts 260°
2026-05-06 23:35 9.11708 -76.92869 39859 ft 443 kts 260°
2026-05-06 23:35 9.10594 -76.98999 39859 ft 443 kts 260°
2026-05-06 23:36 9.09478 -77.05123 39859 ft 443 kts 260°
2026-05-06 23:36 9.08361 -77.11248 39861 ft 443 kts 260°
2026-05-06 23:37 9.07244 -77.17378 39859 ft 443 kts 260°
2026-05-06 23:37 9.06130 -77.23479 39307 ft 439 kts 260°
2026-05-06 23:37 9.05574 -77.26526 38532 ft 442 kts 260°
2026-05-06 23:38 9.05020 -77.29555 37777 ft 445 kts 260°
2026-05-06 23:38 9.04457 -77.32632 37174 ft 443 kts 260°
2026-05-06 23:38 9.03898 -77.35689 36653 ft 440 kts 260°
2026-05-06 23:38 9.03344 -77.38713 36127 ft 436 kts 260°
2026-05-06 23:39 9.02833 -77.41740 35576 ft 433 kts 264°
2026-05-06 23:39 9.02555 -77.44774 35013 ft 432 kts 264°
2026-05-06 23:39 9.02257 -77.47799 34458 ft 431 kts 264°
2026-05-06 23:39 9.01947 -77.50804 33950 ft 428 kts 264°
2026-05-06 23:40 9.01633 -77.53789 33438 ft 426 kts 264°
2026-05-06 23:40 9.01317 -77.56764 32926 ft 424 kts 264°
2026-05-06 23:40 9.01002 -77.59724 32416 ft 422 kts 264°
2026-05-06 23:40 9.00688 -77.62664 31916 ft 420 kts 264°
2026-05-06 23:41 9.00374 -77.65606 31415 ft 419 kts 264°
2026-05-06 23:41 9.00062 -77.68523 30921 ft 417 kts 264°
2026-05-06 23:41 8.99756 -77.71392 30441 ft 414 kts 264°
2026-05-06 23:41 8.99447 -77.74280 29965 ft 412 kts 264°
2026-05-06 23:42 8.99138 -77.77158 29491 ft 410 kts 264°
2026-05-06 23:42 8.98832 -77.80021 29030 ft 408 kts 264°
2026-05-06 23:42 8.98527 -77.82866 28570 ft 406 kts 264°
2026-05-06 23:42 8.98223 -77.85697 28119 ft 403 kts 264°
2026-05-06 23:43 8.97921 -77.88511 27675 ft 401 kts 264°
2026-05-06 23:43 8.97620 -77.91311 27232 ft 399 kts 264°
2026-05-06 23:43 8.97320 -77.94096 26800 ft 397 kts 265°
2026-05-06 23:43 8.97025 -77.96837 26376 ft 396 kts 264°
2026-05-06 23:44 8.96727 -77.99600 25953 ft 394 kts 264°
2026-05-06 23:44 8.96432 -78.02345 25532 ft 392 kts 265°
2026-05-06 23:44 8.96137 -78.05075 25126 ft 390 kts 265°
2026-05-06 23:44 8.95844 -78.07791 24713 ft 388 kts 265°
2026-05-06 23:45 8.95552 -78.10496 24309 ft 386 kts 265°
2026-05-06 23:45 8.95261 -78.13188 23910 ft 384 kts 265°
2026-05-06 23:45 8.94971 -78.15867 23508 ft 382 kts 265°
2026-05-06 23:45 8.94683 -78.18532 23117 ft 380 kts 265°
2026-05-06 23:46 8.94396 -78.21185 22723 ft 378 kts 265°
2026-05-06 23:46 8.94110 -78.23822 22332 ft 376 kts 265°
2026-05-06 23:46 8.93825 -78.26453 21944 ft 374 kts 264°
2026-05-06 23:46 8.93541 -78.29064 21559 ft 372 kts 264°
2026-05-06 23:47 8.93260 -78.31659 21174 ft 370 kts 264°
2026-05-06 23:47 8.92979 -78.34240 20785 ft 368 kts 264°
2026-05-06 23:47 8.92703 -78.36781 20421 ft 366 kts 264°
2026-05-06 23:47 8.92421 -78.39370 20043 ft 364 kts 264°
2026-05-06 23:48 8.92148 -78.41877 19671 ft 362 kts 264°
2026-05-06 23:48 8.91874 -78.44397 19302 ft 361 kts 264°
2026-05-06 23:48 8.91599 -78.46919 18930 ft 359 kts 264°
2026-05-06 23:48 8.91326 -78.49423 18571 ft 356 kts 264°
2026-05-06 23:49 8.91055 -78.51905 18203 ft 354 kts 264°
2026-05-06 23:49 8.90785 -78.54375 17845 ft 353 kts 264°
2026-05-06 23:49 8.90517 -78.56832 17481 ft 351 kts 264°
2026-05-06 23:49 8.90250 -78.59274 17121 ft 348 kts 264°
2026-05-06 23:50 8.89985 -78.61700 16763 ft 346 kts 264°
2026-05-06 23:50 8.89460 -78.66490 16140 ft 339 kts 264°
2026-05-06 23:50 8.89202 -78.68849 15808 ft 336 kts 264°
2026-05-06 23:51 8.88944 -78.71191 15466 ft 334 kts 264°
2026-05-06 23:51 8.88690 -78.73516 15115 ft 332 kts 264°
2026-05-06 23:51 8.88435 -78.75835 14770 ft 330 kts 263°
2026-05-06 23:51 8.88182 -78.78137 14432 ft 328 kts 263°
2026-05-06 23:52 8.87933 -78.80399 14089 ft 327 kts 263°
2026-05-06 23:52 8.87682 -78.82679 13749 ft 325 kts 263°
2026-05-06 23:52 8.87433 -78.84943 13407 ft 323 kts 263°
2026-05-06 23:52 8.87183 -78.87221 13062 ft 321 kts 263°
2026-05-06 23:53 8.86940 -78.89430 12724 ft 319 kts 263°
2026-05-06 23:53 8.86694 -78.91658 12383 ft 317 kts 263°
2026-05-06 23:53 8.86450 -78.93868 12055 ft 315 kts 263°
2026-05-06 23:53 8.86208 -78.96065 11721 ft 314 kts 263°
2026-05-06 23:54 8.85966 -78.98256 11387 ft 312 kts 263°
2026-05-06 23:54 8.85727 -79.00425 11054 ft 310 kts 263°
2026-05-06 23:54 8.85517 -79.02324 10765 ft 308 kts 263°
2026-05-06 23:54 8.85280 -79.04471 10441 ft 306 kts 264°
2026-05-06 23:55 8.85043 -79.06606 10108 ft 305 kts 264°
2026-05-06 23:55 8.84809 -79.08727 9783 ft 303 kts 264°
2026-05-06 23:55 8.84576 -79.10832 9460 ft 301 kts 264°
2026-05-06 23:55 8.84343 -79.12927 9136 ft 298 kts 264°
2026-05-06 23:56 8.84113 -79.15005 8808 ft 296 kts 264°
2026-05-06 23:56 8.83883 -79.17074 8499 ft 295 kts 264°
2026-05-06 23:56 8.83659 -79.19097 8187 ft 293 kts 264°
2026-05-06 23:56 8.83433 -79.21133 7873 ft 291 kts 264°
2026-05-06 23:57 8.83208 -79.23158 7560 ft 289 kts 264°
2026-05-06 23:57 8.82985 -79.25170 7251 ft 287 kts 264°
2026-05-06 23:57 8.82769 -79.27112 6951 ft 285 kts 265°
2026-05-06 23:57 8.82549 -79.29098 6647 ft 283 kts 265°
2026-05-06 23:58 8.82329 -79.31072 6338 ft 282 kts 265°
2026-05-06 23:58 8.82111 -79.33030 6037 ft 280 kts 265°
2026-05-06 23:58 8.81895 -79.34983 5734 ft 278 kts 265°
2026-05-06 23:58 8.81677 -79.36921 5416 ft 277 kts 265°
2026-05-06 23:59 8.81463 -79.38840 5137 ft 274 kts 265°
2026-05-06 23:59 8.81499 -79.40739 4801 ft 270 kts 286°
2026-05-06 23:59 8.82300 -79.42411 4596 ft 260 kts 307°
2026-05-06 23:59 8.83313 -79.43890 4494 ft 251 kts 307°
2026-05-07 00:00 8.84301 -79.45307 4365 ft 242 kts 307°
2026-05-07 00:00 8.85262 -79.46668 4252 ft 234 kts 308°
2026-05-07 00:00 8.86198 -79.47982 4164 ft 229 kts 308°
2026-05-07 00:00 8.86828 -79.48862 4140 ft 228 kts 308°
2026-05-07 00:01 8.88405 -79.50148 3805 ft 221 kts 344°
2026-05-07 00:01 8.89900 -79.50230 3581 ft 213 kts 13°
2026-05-07 00:01 8.91200 -79.49607 3466 ft 204 kts 36°
2026-05-07 00:01 8.92293 -79.48736 3331 ft 196 kts 38°
2026-05-07 00:02 8.93309 -79.47901 3209 ft 180 kts 38°
2026-05-07 00:02 8.94231 -79.47129 3087 ft 166 kts 39°
2026-05-07 00:02 8.95103 -79.46392 2950 ft 162 kts 39°
2026-05-07 00:02 8.95959 -79.45664 2821 ft 160 kts 40°
2026-05-07 00:03 8.96844 -79.44982 2670 ft 161 kts 33°
2026-05-07 00:03 8.97811 -79.44408 2429 ft 159 kts 32°
2026-05-07 00:03 8.98734 -79.43870 2183 ft 152 kts 34°
2026-05-07 00:03 8.99657 -79.43317 1948 ft 154 kts 33°
2026-05-07 00:04 9.00564 -79.42769 1768 ft 151 kts 31°
2026-05-07 00:04 9.01454 -79.42234 1563 ft 147 kts 31°
2026-05-07 00:04 9.02326 -79.41712 1350 ft 145 kts 31°
2026-05-07 00:04 9.03197 -79.41189 1134 ft 146 kts 31°
2026-05-07 00:05 9.04069 -79.40664 906 ft 146 kts 31°
2026-05-07 00:05 9.04936 -79.40143 681 ft 143 kts 31°
2026-05-07 00:05 9.05784 -79.39638 433 ft 143 kts 32°
2026-05-07 00:05 9.06634 -79.39119 263 ft 142 kts 32°
2026-05-07 00:06 9.07496 -79.38598 84 ft 145 kts 30°
2026-05-07 00:06 9.08278 -79.38131 48 ft 102 kts 31°
2026-05-07 00:06 9.08686 -79.37885 50 ft 46 kts 31°
2026-05-07 00:06 9.08811 -79.37723 44 ft 27 kts 117°
2026-05-07 00:07 9.08696 -79.37578 34 ft 19 kts 180°
2026-05-07 00:07 9.08561 -79.37646 34 ft 27 kts 213°
2026-05-07 00:07 9.08398 -79.37790 34 ft 33 kts 225°
2026-05-07 00:07 9.08232 -79.37962 36 ft 35 kts 226°
2026-05-07 00:08 9.08031 -79.38107 37 ft 37 kts 213°
2026-05-07 00:08 9.07831 -79.38226 37 ft 31 kts 210°
2026-05-07 00:08 9.07646 -79.38336 37 ft 29 kts 211°
2026-05-07 00:08 9.07473 -79.38444 37 ft 24 kts 210°
2026-05-07 00:09 9.07327 -79.38533 37 ft 22 kts 210°
2026-05-07 00:09 9.07207 -79.38503 34 ft 20 kts 121°
2026-05-07 00:09 9.07130 -79.38397 33 ft 16 kts 158°
2026-05-07 00:09 9.07062 -79.38405 33 ft 0 kts 209°
2026-05-07 00:10 9.07049 -79.38412 33 ft 11 kts 210°
2026-05-07 00:10 9.07042 -79.38485 33 ft 2 kts 300°
2026-05-07 00:10 9.07048 -79.38497 33 ft 0 kts 300°